Location: Wingville
(42.9917°N, 90.4915°W)
Time: 02:35:24
(UTC+00:00)

UWE-3 - Pass Details

Date: 02 July 2022
Orbit: 583 x 677 km, 97.7° (Epoch: 11 August)

Event Time Altitude Azimuth Distance (km) Brightness Sun altitude
Rises 09:02:49 0° 18° (NNE) 2,898 ? -12.5°
Reaches altitude 10° 09:05:03 10° 25° (NNE) 2,003 ? -12.2°
Maximum altitude 09:09:15 46° 99° (E) 861 ? -11.7°
Drops below altitude 10° 09:13:32 10° 173° (S) 2,044 ? -11.2°
Enters shadow 09:14:45 - 177° (S) 2,524 ? -11.0°
